Zurück zum Katalog

STARLINK-5492

AktivKommunikationVLEO
NORAD 55331·PAYLOAD·🇺🇸 United States

Gestartet Jan 26, 2023 von Cape Canaveral Space Force Station

Loading…

Nächste Überflüge (nächste 24 Stunden)

TLE

AktuellSource: CelesTrak SupGP

Epoche: Sep 14, 2026, 22:03 UTC

1 55331C 23013A   26257.91923611 -.00039910  00000+0 -14457-2 0  2573
2 55331  43.0016 314.8318 0001209 270.2126  53.8188 15.27594929    10

Verfolge STARLINK-5492 in Echtzeit mit AllMySat

Download on the App Store